NAVSTAR 80 (USA 309) (46826 NORAD) Tracking and Keplerian Element Data
This shows tracking and keplerian element data for the satellite.
Feedback or suggestion? Click here.
Element | Value |
Catalog | 46826 |
Name | NAVSTAR 80 (USA 309) |
Epoch Orbit | 179 |
Epoch Day | 13.90746056 |
Epoch Year | 2021 |
RAAN | 291.1393 |
Inclination | 54.9393 |
Eccentricity | 6.8E-05 |
Argument of Perigee | 202.0277 |
Mean Anonmoly | 158.0159 |
Mean Motion | 2.00556071 |
Decay Rate | -2.9E-07 |
L1 | 1 46826U 20078A 21013.90746056 -.00000029 00000-0 00000-0 0 9999 |
L2 | 2 46826 54.9393 291.1393 0000680 202.0277 158.0159 2.00556071 1795 |
Live tracking and technical data element details for NAVSTAR 80 (USA 309) (NORAD 46826). NAVSTAR 80 (USA 309) can be tracked NOW for your location showing map with azimuth and elevation plus other details from your city location.
Track the satellite on the map from your city or location and see movement details for azimuth, elevation, latitude, longitude, range, height, and movement on the map or in text.
IsCatalogInMostPopularTable: catalog: 46826, numindb: 33
Update: records affected: 1
GetName: 46826 NAVSTAR 80 (USA 309)
Hit Count: updated at: Fri, 15 Jan 2021 23:39:17 GMT